Glen Lake Weather Center

Moon Phase Calendar



Glen Lake Water Level
Online Cameras

 


      

Current Conditions in Glen Arbor
10/28/2020 6:59:34 AM

32°F
Feels Like 16
Clouds
Humidity
100%
Pressure
29.12"
Wind
22 mph (N)
Dew Point
32°F
UV Index
2/10 (Low)
Visibility
6 mi

Hourly Forecast

Date & Time Wed, Oct 28
6:00 AM
Wed, Oct 28
7:00 AM
Wed, Oct 28
8:00 AM
Wed, Oct 28
9:00 AM
Wed, Oct 28
10:00 AM
Wed, Oct 28
11:00 AM
Wed, Oct 28
12:00 PM
Wed, Oct 28
1:00 PM
Wed, Oct 28
2:00 PM
Wed, Oct 28
3:00 PM
Wed, Oct 28
4:00 PM
Wed, Oct 28
5:00 PM
Wed, Oct 28
6:00 PM
Wed, Oct 28
7:00 PM
Wed, Oct 28
8:00 PM
Wed, Oct 28
9:00 PM
Wed, Oct 28
10:00 PM
Wed, Oct 28
11:00 PM
Thu, Oct 29
12:00 AM
Thu, Oct 29
1:00 AM
Thu, Oct 29
2:00 AM
Thu, Oct 29
3:00 AM
Thu, Oct 29
4:00 AM
Thu, Oct 29
5:00 AM
Thu, Oct 29
6:00 AM
Thu, Oct 29
7:00 AM
Thu, Oct 29
8:00 AM
Thu, Oct 29
9:00 AM
Thu, Oct 29
10:00 AM
Thu, Oct 29
11:00 AM
Thu, Oct 29
12:00 PM
Thu, Oct 29
1:00 PM
Thu, Oct 29
2:00 PM
Thu, Oct 29
3:00 PM
Thu, Oct 29
4:00 PM
Thu, Oct 29
5:00 PM
Thu, Oct 29
6:00 PM
Thu, Oct 29
7:00 PM
Thu, Oct 29
8:00 PM
Thu, Oct 29
9:00 PM
Thu, Oct 29
10:00 PM
Thu, Oct 29
11:00 PM
Fri, Oct 30
12:00 AM
Fri, Oct 30
1:00 AM
Fri, Oct 30
2:00 AM
Fri, Oct 30
3:00 AM
Fri, Oct 30
4:00 AM
Fri, Oct 30
5:00 AM
Condition
Clouds

Clouds

Clouds

Clouds

Clouds

Clouds

Clouds

Clouds

Clouds

Clear

Clouds

Clouds

Clouds

Clouds

Clouds

Clouds

Clouds

Clouds

Clouds

Clouds

Clouds

Clouds

Clouds

Clouds

Clouds

Clouds

Clouds

Clouds

Clouds

Clouds

Clouds

Clouds

Clouds

Clouds

Clouds

Clouds

Clouds

Clouds

Clouds

Clouds

Clouds

Clouds

Clouds

Clouds

Clouds

Clouds

Clouds

Clouds
Temperature 32°F36°F38°F39°F40°F41°F41°F43°F43°F44°F45°F46°F46°F45°F46°F47°F47°F47°F46°F44°F43°F43°F43°F43°F42°F41°F41°F40°F40°F39°F38°F39°F39°F39°F38°F37°F37°F37°F37°F37°F37°F36°F34°F33°F32°F32°F31°F32°F
Feels Like 15°F18°F21°F22°F23°F25°F27°F30°F32°F33°F34°F34°F35°F35°F35°F36°F37°F37°F35°F34°F33°F32°F32°F31°F29°F28°F28°F26°F25°F25°F25°F26°F26°F26°F25°F26°F27°F27°F27°F27°F26°F25°F25°F26°F27°F27°F27°F27°F
Cloudiness 57%60%65%93%71%48%36%29%25%8%25%21%17%16%26%96%98%98%97%92%82%69%85%88%91%93%94%100%100%100%100%98%97%90%95%97%98%98%98%98%98%99%98%98%99%98%92%94%
Visibility 6 mi6 mi6 mi6 mi6 mi6 mi6 mi6 mi6 mi6 mi6 mi6 mi6 mi6 mi6 mi6 mi6 mi6 mi6 mi6 mi6 mi6 mi6 mi6 mi6 mi6 mi6 mi6 mi6 mi6 mi6 mi6 mi6 mi6 mi6 mi6 mi6 mi6 mi6 mi6 mi6 mi6 mi3 mi4 mi5 mi5 mi6 mi6 mi
Precipitation 0%0%0%0%0%0%0%0%0%0%0%0%0%0%0%13%15%15%17%21%21%24%26%8%4%4%0%10%7%7%5%2%2%0%0%0%0%0%0%0%0%0%0%0%4%17%13%13%
Humidity 100%84%75%72%71%71%72%71%71%71%71%72%74%76%74%73%74%79%81%84%84%86%83%83%81%80%78%77%76%77%77%75%75%74%77%76%77%76%75%76%78%83%89%91%93%95%94%94%
Dew Point 32°F32°F31°F31°F31°F32°F33°F34°F35°F36°F37°F37°F38°F38°F39°F39°F40°F40°F40°F40°F39°F39°F38°F38°F37°F36°F35°F34°F33°F32°F31°F30°F30°F29°F28°F27°F27°F26°F25°F26°F27°F28°F29°F28°F27°F27°F26°F26°F
Pressure 29.12"29.5"29.74"29.85"29.91"29.91"29.91"29.88"29.88"29.88"29.85"29.85"29.88"29.88"29.91"29.94"29.91"29.94"29.94"29.94"29.94"29.94"29.94"29.94"29.97"30"30"30"30.03"30.03"30.03"30.03"30.03"30.03"30.03"30.03"30.06"30.09"30.12"30.12"30.12"30.12"30.12"30.12"30.12"30.15"30.15"30.18"
Wind Speed 24.4 mph25.2 mph24.6 mph24.5 mph24 mph21 mph18.8 mph16.1 mph14.2 mph14.4 mph14.2 mph15.7 mph14.7 mph14.3 mph15.1 mph15.7 mph14.2 mph13.4 mph14.9 mph13.8 mph14.6 mph14.7 mph16 mph17.1 mph18 mph17.8 mph17.4 mph18.5 mph18.9 mph17.9 mph17.8 mph16.9 mph15.9 mph16 mph15.6 mph13.8 mph12 mph11.1 mph11.1 mph11 mph11.4 mph11.5 mph9.5 mph6.2 mph3.1 mph2 mph0.4 mph0.7 mph
Wind
Direction
232°
SW
239°
WSW
246°
WSW
247°
WSW
251°
WSW
255°
WSW
259°
W
266°
W
260°
W
259°
W
245°
WSW
240°
WSW
243°
WSW
238°
WSW
246°
WSW
256°
WSW
267°
W
308°
NW
330°
NNW
338°
NNW
349°
N

N

N

N
11°
N
18°
NNE
25°
NNE
27°
NNE
27°
NNE
36°
NE
41°
NE
41°
NE
35°
NE
31°
NNE
32°
NNE
35°
NE
36°
NE
26°
NNE
22°
NNE
19°
NNE
19°
NNE
27°
NNE
43°
NE
63°
ENE
90°
E
107°
ESE
24°
NNE
331°
NNW

Daily Forecast

Date High Low Precip. Humidity
Today
Oct 28

Rain
47 °F
32 °F
35%
72%
Thursday
Oct 29

Rain
43 °F
36 °F
28%
75%
Friday
Oct 30

Clouds
37 °F
32 °F
16%
75%
Saturday
Oct 31

Clouds
53 °F
33 °F
0%
62%
Sunday
Nov 1

Rain
50 °F
34 °F
89%
87%
Monday
Nov 2

Clouds
45 °F
33 °F
46%
74%
Tuesday
Nov 3

Clouds
46 °F
39 °F
0%
61%
Wednesday
Nov 4

Clear
53 °F
48 °F
0%
77%
Thursday
Nov 5

Rain
57 °F
53 °F
36%
68%
Friday
Nov 6

Rain
55 °F
41 °F
100%
81%
Saturday
Nov 7

Clouds
53 °F
41 °F
9%
82%
Sunday
Nov 8

Rain
59 °F
49 °F
100%
80%
Monday
Nov 9

Rain
42 °F
36 °F
39%
79%
Tuesday
Nov 10

Clouds
38 °F
34 °F
4%
71%
Wednesday
Nov 11

Clouds
40 °F
35 °F
0%
67%
Thursday
Nov 12

Clouds
45 °F
39 °F
0%
66%


Temperature 8-14 Day Outlook



Precipitation 8-14 Day Outlook




Quick Links
Glen Lake News
Glen Lake Photos
Glen Lake Videos




About Us
Contact Us
Site Map
Search Site
Advertise With Us
   
Glen-MI.LakesOnline.com
THE GLEN LAKE WEBSITE

Copyright 2020, Lakes Online
Privacy    |    Legal